Change the Weather History Date:

Sunday, March 24, 2013

  Actual Average Record
Temperature  
Mean Temperature 78 °F -  
Max Temperature 88 °F 87 °F 88 °F (2013)
Min Temperature 69 °F 68 °F 62 °F (2011)
Cooling Degree Days 14    
Growing Degree Days 28 (Base 50)    
Moisture  
Dew Point 71 °F    
Average Humidity 76    
Maximum Humidity 94    
Minimum Humidity 48    
Precipitation  
Precipitation 0.00 in 0.08 in - ()
Sea Level Pressure  
Sea Level Pressure 29.95 in    
Wind  
Wind Speed 6 mph ()    
Max Wind Speed 11 mph    
Max Gust Speed -    
Visibility 6.7 miles    
Events      
Averages and records for this station are not official NWS values.
T = Trace of Precipitation, MM = Missing Value Source: Averaged Metar Reports

Daily Weather History Graph

Daily Weather History Graph

Search for Another Location

Airport or City:

Trip Planner

Search our weather history database for the weather conditions in past years. The results will help you decide how hot, cold, wet, or windy it might be!

Date:

Astronomy

Mar. 24, 2013 Rise Set
Actual Time 6:39 AM AST 6:50 PM AST
Civil Twilight 6:17 AM AST 7:12 PM AST
Nautical Twilight 5:52 AM AST 7:37 PM AST
Astronomical Twilight 5:26 AM AST 8:03 PM AST
Moon 4:32 PM AST (3/24) 4:26 AM AST (3/24)
Length of Visible Light 12h 54m
Length of Day
12h 11m
Waxing Gibbous, 91% of the Moon is Illuminated
Mar 24
Waxing Gibbous
Mar 27
Full
Apr 3
Last Quarter
Apr 10
New
Apr 18
First Quarter

Hourly Weather History & Observations

Time (AST) Temp. Heat Index Dew Point Humidity Pressure Visibility Wind Dir Wind Speed Gust Speed Precip Events Conditions
1:00 AM 73.4 °F - 69.8 °F 88% 29.98 in 6.2 mi ENE 4.6 mph - N/A   Scattered Clouds
2:00 AM 73.4 °F - 69.8 °F 88% 29.95 in 6.2 mi ENE 4.6 mph - N/A   Scattered Clouds
3:00 AM 73.4 °F - 69.8 °F 88% 29.95 in 6.2 mi Calm Calm - N/A   Scattered Clouds
4:00 AM 71.6 °F - 69.8 °F 94% 29.92 in 6.2 mi NE 4.6 mph - N/A   Scattered Clouds
5:00 AM 72 °F - 69 °F 85% 29.94 in 7 mi NE 6.7 mph - -   Haze
5:00 AM 71.6 °F - 68.0 °F 88% 29.92 in 6.2 mi NE 5.8 mph - N/A   Scattered Clouds
6:00 AM 71.6 °F - 68.0 °F 88% 29.95 in 6.2 mi ENE 4.6 mph - N/A   Scattered Clouds
7:00 AM 69.8 °F - 68.0 °F 94% 29.98 in 6.2 mi ENE 4.6 mph - N/A   Scattered Clouds
8:00 AM 73.4 °F - 71.6 °F 94% 30.01 in 6.2 mi ENE 6.9 mph - N/A   Scattered Clouds
9:00 AM 78.8 °F - 71.6 °F 78% 30.01 in 6.2 mi East 5.8 mph - N/A   Scattered Clouds
10:00 AM 82.4 °F 87.2 °F 71.6 °F 70% 30.01 in 6.2 mi ESE 9.2 mph - N/A   Scattered Clouds
11:00 AM 85 °F - 72 °F 56% 30.02 in 9 mi ESE 11.2 mph - -   Haze
11:00 AM 84.2 °F 89.6 °F 71.6 °F 66% 30.01 in 6.2 mi ESE 10.4 mph - N/A   Scattered Clouds
12:00 PM 86.0 °F 91.8 °F 71.6 °F 62% 30.01 in 6.2 mi SSE 10.4 mph - N/A   Scattered Clouds
1:00 PM 87.8 °F 95.6 °F 73.4 °F 62% 29.98 in 6.2 mi SSE 9.2 mph - N/A   Scattered Clouds
2:00 PM 89 °F - 72 °F 48% 29.95 in 9 mi South 11.2 mph - -   Haze
2:00 PM 87.8 °F 93.8 °F 71.6 °F 58% 29.95 in 6.2 mi South 10.4 mph - N/A   Scattered Clouds
3:00 PM 87.8 °F 93.8 °F 71.6 °F 58% 29.92 in 6.2 mi South 10.4 mph - N/A   Partly Cloudy
4:00 PM 87.8 °F 95.6 °F 73.4 °F 62% 29.89 in 6.2 mi South 10.4 mph - N/A   Scattered Clouds
5:00 PM 86 °F - 73 °F 58% 29.89 in 9 mi South 8.9 mph - -   Haze
5:00 PM 84.2 °F 90.9 °F 73.4 °F 70% 29.89 in 6.2 mi South 9.2 mph - N/A   Partly Cloudy
6:00 PM 84.2 °F 90.9 °F 73.4 °F 70% 29.89 in 6.2 mi South 9.2 mph - N/A   Partly Cloudy
7:00 PM 82.4 °F 88.2 °F 73.4 °F 74% 29.89 in 6.2 mi SSE 6.9 mph - N/A   Scattered Clouds
8:00 PM 79 °F - 74 °F 81% 29.92 in 9 mi SSE 6.7 mph - -   Haze
8:00 PM 78.8 °F - 73.4 °F 83% 29.92 in 6.2 mi SSE 6.9 mph - N/A   Scattered Clouds
9:00 PM 77.0 °F - 73.4 °F 89% 29.92 in 6.2 mi SSE 9.2 mph - N/A   Partly Cloudy
10:00 PM 75.2 °F - 71.6 °F 89% 29.95 in 6.2 mi SSE 5.8 mph - N/A   Partly Cloudy
11:00 PM 74 °F - 71 °F 88% 29.96 in 9 mi SE 6.7 mph - -   Haze
11:00 PM 75.2 °F - 71.6 °F 89% 29.95 in 6.2 mi SE 5.8 mph - N/A   Partly Cloudy